[Date Prev][Date Next][Thread Prev][Thread Next] - [Date Index][Thread Index][Author Index]

2 Line ISS Keps 3-4



ISS
1 25544U 98067A   04064.06866405  .00026317  00000-0  25166-3 0  3085
2 25544  51.6285 141.0251 0011202 233.8666 197.3746 15.66446875301826


----
Via the sarex mailing list at AMSAT.ORG courtesy of AMSAT-NA.
To unsubscribe, send "unsubscribe sarex" to Majordomo@amsat.org



AMSAT Top AMSAT Home